Regional Weather Roundup
Issued by NWS

Home | Current Version | Previous Version | Graphics & Text | Print | Product List | Glossary On
Versions: 1 2 3 4 5 6 7 8 9 10 11 12 13 14 15 16 17 18 19 20 21 22 23 24 25 26 27 28 29 30 31 32 33 34 35 36 37 38 39 40 41 42 43 44 45 46 47 48 49 50
605
ASUS45 KCYS 291410
RWRWY

WYOMING REGIONAL WEATHER ROUNDUP
NATIONAL WEATHER SERVICE CHEYENNE WY
800 AM MDT THU SEP 29 2016

NOTE:  "FAIR" INDICATES FEW OR NO CLOUDS BELOW 12,000 FEET
WITH NO SIGNIFICANT WEATHER AND/OR OBSTRUCTIONS TO VISIBILITY.

WYZ001-291500-
YELLOWSTONE NATIONAL PARK

CITY           SKY/WX    TMP DP  RH WIND       PRES   REMARKS
LK YELLOWSTONE NOT AVBL
W YELLOWSTONE  NOT AVBL

$$
WYZ002>013-054>058-071-098>099-291500-
NORTHERN WYOMING

CITY           SKY/WX    TMP DP  RH WIND       PRES   REMARKS
JACKSON        NOT AVBL
CODY           FAIR      48  43  81 CALM      30.23S
GREYBULL       NOT AVBL
WORLAND        NOT AVBL
SHERIDAN       NOT AVBL
BUFFALO        NOT AVBL
GILLETTE       NOT AVBL
HULETT         FAIR      63  39  42 S5        30.28S
NEWCASTLE      FAIR      59  36  41 SE13      30.31S

$$
WYZ014>020-022>026-101>103-291500-
CENTRAL WYOMING

CITY           SKY/WX    TMP DP  RH WIND       PRES   REMARKS
BIG PINEY      NOT AVBL
PINEDALE       CLOUDY    45  37  76 N3        30.40R
DUBOIS         CLOUDY    43  34  70 W7        30.38F
LANDER         NOT AVBL
RIVERTON       NOT AVBL
CASPER         NOT AVBL
DOUGLAS        NOT AVBL

$$
WYZ021-027>030-104>119-291500-
SOUTHERN WYOMING

CITY           SKY/WX    TMP DP  RH WIND       PRES   REMARKS
EVANSTON       NOT AVBL
FORT BRIDGER   FAIR      56  41  57 CALM      30.39R
ROCK SPRINGS   NOT AVBL
DIXON          FAIR      51  35  53 W3        30.43R
RAWLINS        NOT AVBL
SARATOGA       FAIR      45  32  61 SE10      30.43R
LARAMIE        NOT AVBL
CHEYENNE       NOT AVBL
TORRINGTON     NOT AVBL
PINE BLUFFS    FAIR      48  41  76 S12       30.37S

$$




USA.gov is the U.S. government's official web portal to all federal, state and local government web resources and services.